Regional Weather Roundup
Issued by NWS

Home | Current Version | Previous Version | Graphics & Text | Print | Product List | Glossary On
Versions: 1 2 3 4 5 6 7 8 9 10 11 12 13 14 15 16 17 18 19 20 21 22 23 24 25 26 27 28 29 30 31 32 33 34 35 36 37 38 39 40 41 42 43 44 45 46 47 48 49 50
000
ASUS43 KLMK 010302
RWRKY
KENTUCKY REGIONAL WEATHER ROUNDUP
NATIONAL WEATHER SERVICE LOUISVILLE KY
1000 PM EST SAT JAN 31 2015

NOTE "FAIR" INDICATES FEW OR NO CLOUDS BELOW 12,000 FEET
WITH NO SIGNIFICANT WEATHER AND/OR OBSTRUCTIONS TO VISIBILITY.

KYZ001>023-026-027-061>063-070>075-010400-
WESTERN AND SOUTH CENTRAL KENTUCKY

CITY           SKY/WX    TMP DP  RH WIND       PRES   REMARKS
PADUCAH        CLOUDY    42  24  49 SE12      30.13F
HENDERSON      CLOUDY    39  25  56 E7        30.19F WCI  34
OWENSBORO      CLOUDY    40  25  55 E7        30.20F
HOPKINSVILLE   CLOUDY    43  18  36 SE8       30.20F
BOWLING GREEN  CLOUDY    38  26  62 E3        30.24F
GLASGOW        NOT AVBL
$$

KYZ024-025-028>034-038-045-046-053-010400-
NORTH CENTRAL KENTUCKY

CITY           SKY/WX    TMP DP  RH WIND       PRES   REMARKS
LOUISVILLE/SDF CLOUDY    39  21  48 SE3       30.25F
LOUISVILLE/LOU CLOUDY    39  21  48 CALM      30.26S
FORT KNOX      CLOUDY    37  22  55 SE5       30.23F WCI  33
$$

KYZ035>037-039>044-047>052-055>060-089>105-010400-
NORTHEAST KENTUCKY

CITY           SKY/WX    TMP DP  RH WIND       PRES   REMARKS
LEXINGTON      CLOUDY    36  20  52 E5        30.25F WCI  32
COVINGTON      LGT RAIN  36  23  59 SW3       30.24F
FRANKFORT      CLOUDY    36  21  54 CALM      30.24F
$$

KYZ054-064>069-076>088-106>120-010400-
SOUTHEAST KENTUCKY

CITY           SKY/WX    TMP DP  RH WIND       PRES   REMARKS
JACKSON        CLOUDY    39  10  30 CALM      30.25F
LONDON         CLOUDY    38  15  39 CALM      30.25S
SOMERSET       NOT AVBL
MIDDLESBORO    NOT AVBL
MONTICELLO     CLOUDY    39  23  53 CALM      30.26F
$$




USA.gov is the U.S. government's official web portal to all federal, state and local government web resources and services.